GFSNE_con_mucape_132.txt.gz
CAPE
2120 2563 2751 1919 1508 1373 99 1557 2041 1057 712 1449 883 999 458 220 486 1359 856 565 93 0 20 98 171 54 87 117 73 263 304 996 698 839 1454 1288 1253 1372
1604 1622 2021 1860 1693 1136 576 962 1494 448 1147 876 1850 1435 1231 915 1327 891 920 375 291 0 0 14 156 78 37 104 89 105 173 223 170 113 128 118 1003 1239
2283 1993 2052 2525 2405 1783 1737 1350 1083 1469 1438 622 2349 1467 352 2053 1321 936 721 162 59 0 0 0 2 99 126 24 10 42 54 80 150 51 149 93 75 256
1664 1668 2048 1483 2120 1652 2209 2253 2005 2227 1842 1530 1721 2228 2109 2641 2118 1542 778 200 106 0 0 0 0 0 0 27 71 93 121 140 131 74 95 124 90 0
1778 1331 1671 1717 1529 1879 2113 2072 2104 1249 1156 929 1180 1333 1230 1872 1520 1313 388 308 167 0 0 0 0 0 0 0 0 0 0 0 46 77 46 72 97 107
1713 1630 1756 1536 2002 1903 1377 1724 1461 1839 1715 1070 1449 724 982 1105 802 1003 645 362 134 18 0 0 0 0 0 0 0 0 0 0 0 9 69 84 95 96
2091 1861 1516 1341 934 1063 2219 1488 2199 1628 1417 1882 1204 671 869 468 213 177 367 573 242 132 14 0 0 0 0 0 0 0 0 0 0 0 0 31 54 65
1685 1965 2035 1317 895 487 281 198 213 1977 1454 1274 973 1122 810 203 5 389 544 495 301 484 166 0 0 3 0 0 0 0 0 0 0 0 0 0 2 4
1662 1462 1261 844 854 1534 795 230 92 55 91 502 1412 1106 964 896 907 905 788 863 752 353 169 56 0 0 0 0 0 0 0 0 0 0 0 0 0 0
804 702 489 788 451 346 574 1042 937 215 96 86 76 196 196 145 164 340 277 796 830 765 224 57 0 0 10 2 0 0 0 0 0 0 0 0 0 0
104 128 70 15 70 191 114 159 467 252 124 34 24 24 27 32 43 104 67 259 297 104 123 80 32 0 0 8 0 0 0 0 0 0 0 0 0 0
39 63 24 7 0 47 45 96 141 118 73 21 12 23 20 22 37 48 40 14 75 67 30 43 33 31 1 7 0 0 0 0 0 0 0 0 0 0
30 30 21 12 10 11 7 36 29 34 29 3 6 15 30 31 27 31 34 28 80 44 23 36 45 16 4 1 0 0 0 0 0 0 0 0 0 0
8 7 16 25 9 5 8 5 2 3 2 4 2 8 26 17 11 8 9 26 49 13 29 6 9 9 8 3 0 0 0 0 0 0 0 0 0 0
1 7 6 5 13 28 9 7 0 6 9 13 8 18 36 28 33 33 32 3 20 9 1 1 6 0 0 1 0 0 0 0 0 0 0 0 0 0
2 12 0 0 0 7 19 13 11 14 35 51 39 30 40 44 36 6 1 0 14 4 0 0 0 0 0 0 0 0 0 0 0 0 0 0 0 0
2 2 0 4 1 8 5 7 15 4 10 13 46 29 18 35 57 12 4 1 0 0 0 0 0 0 0 0 0 0 0 0 0 0 0 0 0 0
0 0 1 1 0 2 1 1 19 14 1 2 21 29 55 15 12 0 1 2 0 5 0 0 0 0 0 0 0 0 0 0 0 0 0 0 0 0
0 0 0 0 0 0 0 1 1 0 3 6 0 0 0 0 0 0 0 1 0 0 0 0 0 0 0 0 0 0 0 0 0 0 0 0 0 0
0 0 0 0 0 0 0 0 0 0 0 0 0 0 0 0 0 0 0 0 0 0 0 0 0 0 0 0 0 0 0 0 0 0 0 0 0 0
3 2 1 2 0 0 0 0 0 0 0 0 0 1 0 0 0 0 0 0 0 0 0 0 0 0 0 0 0 0 0 0 0 0 0 0 0 0
0 0 27 23 38 55 21 27 6 0 12 7 16 5 4 0 0 0 0 0 0 0 0 0 0 0 0 0 0 0 0 0 0 0 0 0 0 0
0 0 0 34 89 69 62 50 25 38 63 27 3 9 0 0 0 0 0 0 0 0 0 0 0 0 0 0 0 0 0 0 0 0 0 0 0 0

GFSNE_con_mucape_135.txt.gz
CAPE
909 1173 1270 1228 1075 654 578 760 828 145 83 432 861 857 370 58 655 493 524 416 152 15 0 22 43 0 21 48 0 46 252 804 700 798 870 839 982 1256
958 1044 965 635 808 964 983 932 629 743 265 941 759 498 947 440 667 529 615 159 0 0 0 0 23 19 0 10 13 38 53 128 59 18 13 226 872 737
919 937 945 1037 1104 1314 556 1093 968 862 341 630 935 633 645 857 787 699 360 65 7 0 0 0 0 0 38 9 4 23 39 16 55 0 7 26 18 240
860 816 536 1221 828 705 1106 913 910 572 403 511 869 803 805 791 581 584 164 152 100 21 0 0 0 0 0 1 36 53 80 93 92 64 37 76 62 3
1237 921 811 800 849 582 550 593 674 843 503 291 58 586 279 764 632 255 150 166 157 11 0 0 0 0 0 0 0 0 0 0 9 50 66 72 90 84
1195 742 749 936 946 951 770 582 748 897 818 623 519 286 314 343 342 197 116 106 150 54 36 16 0 0 0 0 0 0 0 0 0 0 2 24 62 84
1081 975 911 705 803 468 459 677 607 483 405 202 218 203 116 117 145 107 129 42 60 74 62 96 32 0 0 0 0 0 0 0 0 0 0 2 18 27
525 469 897 927 726 703 577 239 165 222 316 231 113 109 181 136 120 59 130 162 166 130 69 102 81 65 14 0 0 0 0 0 0 0 0 0 0 4
321 271 461 302 365 338 463 418 132 72 53 58 97 61 141 132 119 221 232 241 166 93 74 40 49 101 65 1 0 0 0 0 0 0 0 0 0 0
83 131 104 89 73 71 47 13 109 110 57 23 32 30 47 54 84 84 74 170 232 87 94 40 29 75 53 28 0 0 0 0 0 0 0 0 0 0
63 68 51 27 17 3 26 55 71 137 106 88 6 4 6 19 31 29 30 39 73 53 60 87 70 73 35 20 5 13 0 0 0 0 0 0 0 0
38 43 32 24 8 0 1 27 103 88 58 58 60 44 16 4 1 10 19 30 46 66 65 76 80 57 41 41 8 5 7 0 0 0 0 0 0 0
19 15 19 7 10 8 12 8 30 56 31 32 37 10 3 4 1 0 1 6 21 38 38 69 87 72 49 34 10 5 3 0 0 0 0 0 0 0
0 0 0 1 1 0 3 4 6 10 10 20 17 5 7 2 0 1 16 34 8 24 27 12 36 13 1 6 3 1 0 0 0 0 0 0 0 0
0 0 0 0 0 0 0 0 0 0 1 7 4 5 29 50 30 42 38 42 7 1 0 3 8 9 3 6 0 0 0 0 0 0 0 0 0 0
0 2 2 1 0 0 0 0 0 0 0 2 13 23 49 43 26 0 16 67 5 1 3 1 0 0 0 0 0 0 0 0 0 0 0 0 0 0
0 0 0 0 3 1 5 0 0 1 1 0 0 0 0 10 16 31 40 37 12 8 1 0 0 0 0 0 0 0 0 3 0 0 0 0 0 0
0 0 0 0 0 0 0 0 0 0 1 12 4 13 2 0 4 0 0 0 0 0 2 1 0 0 0 0 0 0 0 0 0 0 0 0 0 0
0 0 0 0 0 0 0 0 0 0 0 0 0 0 0 0 0 0 0 0 0 0 0 0 0 0 0 0 0 0 0 0 0 0 0 0 0 0
0 0 0 0 0 0 0 0 0 0 0 0 0 0 0 0 0 0 0 0 0 0 0 0 0 0 0 0 0 0 0 0 0 0 0 0 0 0
0 0 0 0 0 0 0 0 0 0 0 0 0 0 0 0 0 0 0 0 0 0 0 0 0 0 0 0 0 0 0 0 0 0 0 0 0 0
0 0 0 0 0 0 0 0 0 0 0 0 0 0 0 0 0 0 0 0 0 0 0 0 0 0 0 0 0 0 0 0 0 0 0 0 0 0
0 0 0 0 0 0 2 13 0 0 12 3 1 0 0 0 0 0 0 0 0 0 0 0 0 0 0 0 0 0 0 0 0 0 0 0 0 0

GFSNE_con_mucape_138.txt.gz
CAPE
646 787 816 704 779 561 599 648 403 187 19 251 655 858 576 83 115 273 250 86 53 0 0 0 15 0 13 44 10 50 501 576 641 582 511 661 937 1002
635 732 589 605 611 721 662 702 723 434 182 517 453 415 211 103 432 197 93 0 0 0 0 0 0 59 0 0 0 0 34 80 34 26 97 372 590 476
466 502 497 528 464 898 487 752 595 509 153 361 556 438 476 496 470 325 155 0 0 0 0 0 0 0 35 11 0 0 41 21 5 60 0 0 0 204
723 685 617 479 571 512 414 471 530 440 361 191 233 434 206 280 236 311 68 42 17 15 0 0 0 0 0 0 30 56 63 62 57 52 30 0 0 26
987 994 752 449 482 648 422 355 359 528 470 202 80 85 138 355 289 245 92 8 0 16 0 0 0 0 0 0 0 0 0 0 0 5 19 7 26 75
639 894 600 497 573 459 758 707 532 543 539 501 344 166 144 215 277 130 88 14 0 2 21 11 0 0 0 0 0 0 0 0 0 0 1 2 20 51
588 760 761 732 778 729 658 357 273 325 282 215 119 110 72 110 96 100 101 11 7 3 10 31 28 9 0 0 0 0 0 0 0 0 0 0 3 8
505 396 435 586 479 527 432 359 255 135 156 147 100 45 82 139 83 87 71 123 43 3 53 106 63 64 35 20 0 0 0 0 0 0 0 0 0 2
160 250 307 195 167 242 119 35 79 72 84 73 81 94 100 113 63 93 68 84 62 48 33 35 37 116 97 69 35 7 1 0 0 0 0 0 0 0
68 82 82 68 67 42 10 22 44 49 42 63 62 56 60 53 53 68 84 88 120 86 5 0 30 91 108 84 86 58 5 0 0 0 0 0 0 0
50 43 56 63 55 46 39 7 31 31 46 37 2 33 35 18 23 30 11 6 35 40 47 62 25 45 70 96 96 82 49 46 0 0 4 1 0 0
50 39 32 56 33 23 7 16 22 9 29 34 27 31 41 54 61 29 3 17 8 6 43 59 76 80 80 88 105 90 43 30 31 6 1 0 0 0
11 5 4 15 11 16 18 18 6 22 22 36 50 30 17 12 10 1 4 1 2 3 11 38 48 53 38 45 59 22 7 5 1 0 0 0 0 0
0 0 0 0 1 0 1 0 0 1 6 18 8 1 0 0 0 5 0 0 2 7 20 6 18 3 16 18 4 4 3 8 3 0 0 0 0 0
0 0 0 0 0 0 0 0 0 0 0 4 3 3 1 1 0 4 0 0 0 6 0 3 2 5 14 14 13 6 2 0 4 0 0 1 0 0
0 0 0 0 0 0 0 0 0 0 0 8 2 3 1 1 1 0 0 0 1 3 10 3 1 0 0 0 0 0 0 0 10 11 8 7 2 0
0 0 0 1 2 0 0 0 0 0 0 0 0 6 2 2 6 1 0 0 5 10 0 2 0 0 0 2 1 4 3 0 5 0 1 0 0 0
0 0 0 0 0 0 0 0 0 0 0 0 0 0 0 0 0 0 0 0 0 0 0 0 0 0 0 0 0 0 0 0 0 0 0 0 0 0
0 0 0 0 0 0 0 0 0 0 0 0 0 0 0 0 0 0 0 0 0 0 0 0 0 0 0 0 0 0 0 0 0 0 0 0 0 0
0 0 0 0 0 0 0 0 0 0 0 0 0 0 0 0 0 0 0 0 0 0 0 0 0 0 0 0 0 0 0 0 0 0 0 0 0 0
0 0 0 0 0 0 0 0 0 0 0 0 0 0 0 0 0 0 0 0 0 0 0 0 0 0 0 0 0 0 0 0 0 0 0 0 0 0
0 0 0 0 0 0 0 0 0 0 0 0 0 0 0 0 0 0 0 0 0 0 0 0 0 0 0 0 0 0 0 0 0 0 0 0 0 0
0 0 0 0 0 0 0 0 0 0 0 0 0 0 0 0 0 0 0 0 0 0 0 0 0 0 0 0 0 0 0 0 0 0 0 1 4 1

GFSNE_con_mucape_141.txt.gz
CAPE
796 513 608 515 669 543 466 360 291 258 101 190 389 616 493 166 54 156 148 23 0 0 0 0 1 0 0 0 0 264 668 764 652 598 501 590 825 746
666 614 626 390 516 481 609 415 391 246 138 147 244 474 461 258 101 175 107 0 0 0 0 0 0 0 0 0 0 0 51 104 127 80 191 250 259 360
543 450 405 360 379 412 656 591 510 375 193 70 404 235 299 197 224 187 126 40 0 0 0 0 0 0 0 0 0 0 0 0 3 0 0 0 0 64
1105 728 794 676 367 365 389 344 423 375 268 143 142 340 265 136 156 175 135 51 30 10 0 0 0 0 0 0 0 0 0 0 0 0 0 19 0 24
754 868 720 729 543 274 359 300 247 307 376 320 140 37 100 135 120 159 198 87 56 3 2 0 0 0 0 0 0 0 0 0 0 0 0 0 32 44
760 694 711 512 384 451 455 412 498 416 359 303 170 103 84 141 153 136 101 88 73 20 0 3 7 3 0 0 0 0 0 0 0 0 0 0 0 6
679 604 644 666 664 708 636 603 384 178 183 168 178 103 70 84 60 105 102 70 70 10 0 0 9 38 26 4 0 0 0 0 0 0 0 0 0 1
392 484 428 470 372 346 335 375 292 211 153 148 141 119 57 8 47 45 55 45 13 20 15 33 58 64 47 35 17 10 3 0 0 0 0 0 0 0
253 182 256 230 151 111 109 96 45 74 88 104 114 93 89 101 106 63 23 18 28 33 35 56 86 41 26 81 46 47 48 31 16 2 0 0 0 0
146 116 91 70 49 48 46 29 16 20 35 60 73 85 85 81 92 88 71 72 78 85 60 32 24 16 24 64 76 81 40 46 43 16 10 12 2 0
143 112 78 53 41 45 51 50 25 18 11 50 69 49 19 37 72 84 75 56 49 24 17 35 37 49 45 80 84 46 52 66 56 35 17 30 10 7
50 18 20 38 40 46 31 20 17 28 18 16 38 51 38 28 41 71 44 11 3 3 5 1 11 41 45 46 33 12 14 14 6 6 1 4 0 4
8 16 11 18 3 5 5 5 10 20 12 6 16 35 66 16 6 1 6 0 0 7 3 1 6 4 22 2 1 0 0 2 1 12 11 4 0 0
2 0 0 0 0 0 0 7 2 0 0 7 25 41 30 12 0 0 0 0 0 2 5 19 6 3 1 0 0 7 21 18 27 25 2 3 0 0
0 0 0 0 0 0 0 0 0 0 0 0 0 5 10 7 6 0 0 0 0 0 0 3 8 18 6 4 4 12 17 6 0 2 47 15 0 2
0 0 0 0 0 0 0 0 0 0 0 0 0 3 0 0 3 8 7 0 0 0 0 0 3 4 11 1 1 0 0 6 0 0 55 15 2 1
0 0 0 1 2 2 0 0 0 0 0 0 0 0 1 2 4 0 0 0 0 0 0 0 0 0 0 0 0 0 0 7 17 15 2 0 0 0
0 0 0 0 0 0 0 0 0 0 0 0 0 0 0 0 0 0 0 0 0 0 0 0 0 0 0 0 0 0 0 0 0 0 0 0 0 0
0 0 0 0 0 0 0 0 0 0 0 0 0 0 0 0 0 0 0 0 0 0 0 0 0 0 0 0 0 0 0 0 0 0 0 0 0 0
0 0 0 0 0 0 0 0 0 0 0 0 0 0 0 0 0 0 0 0 0 0 0 0 0 0 0 0 0 0 0 0 0 0 0 0 0 0
0 0 0 0 0 0 0 0 0 0 0 0 0 0 0 0 0 0 0 0 0 0 0 0 0 0 0 0 0 0 0 0 0 0 0 0 0 0
0 0 0 0 0 0 0 0 0 0 0 0 0 0 0 0 0 0 0 0 0 0 0 0 0 0 0 0 0 0 0 0 0 0 0 0 0 0
0 0 0 0 0 0 0 0 0 0 0 0 0 0 0 0 0 0 0 0 0 0 0 0 0 0 0 0 0 0 0 0 0 0 0 1 3 1

GFSNE_con_mucape_147.txt.gz
CAPE
2077 1966 2334 2222 2094 2275 2146 1347 1251 525 512 398 878 1611 1676 1152 332 214 24 0 0 0 0 0 0 0 0 0 0 229 631 727 581 394 326 350 550 515
1855 1946 2089 2087 1717 2207 2302 1927 1596 1657 728 775 731 1252 1616 1083 352 234 21 46 12 0 0 0 0 0 0 0 0 60 222 227 313 347 304 291 302 271
1877 1804 1889 1813 1372 1621 1704 1704 2390 2119 1018 895 1083 1308 1685 1636 621 65 58 45 33 9 0 0 0 0 0 0 0 0 0 0 0 0 6 0 0 0
1804 1830 1792 1366 1995 1698 1295 1876 1753 1709 1681 1192 1547 1564 1876 1426 1124 486 60 17 11 23 7 5 0 0 0 0 0 0 0 0 0 0 0 0 0 2
1889 1822 1726 1689 1708 1620 1512 1357 1072 1119 1428 978 1127 1057 1008 624 427 134 44 32 28 55 23 24 0 0 0 0 0 0 0 0 0 0 0 0 0 4
1805 1803 1857 1827 1762 1692 1390 1476 1096 1278 1081 1297 1056 968 1070 1003 354 556 349 23 28 51 50 46 17 0 0 0 0 0 0 0 0 0 0 0 0 0
1573 1702 1581 1261 713 599 1388 1547 1418 1068 869 1325 1030 800 633 901 869 682 267 208 89 36 52 49 54 9 10 3 1 19 11 11 8 20 9 0 0 0
1664 1322 1241 354 274 284 168 58 31 623 976 724 395 515 550 363 261 251 165 94 201 38 19 41 40 41 42 23 28 58 40 62 65 23 1 3 3 0
1186 1082 956 117 155 141 77 37 0 0 3 36 177 24 4 17 21 95 146 181 115 96 95 68 54 48 32 29 56 40 22 19 32 39 17 8 18 8
157 117 171 89 76 48 59 47 29 6 23 5 6 11 7 10 14 24 23 26 55 72 82 86 69 71 47 4 3 20 15 2 4 5 0 0 0 0
131 129 115 97 93 17 12 15 8 18 14 15 15 11 3 5 10 10 36 46 31 38 25 3 2 1 0 0 0 3 0 0 0 0 0 0 0 0
113 120 103 35 0 1 3 7 6 4 12 3 5 11 15 8 9 11 17 31 14 0 0 0 0 0 3 1 1 0 0 0 0 0 0 0 0 0
47 25 0 0 0 0 5 7 6 2 0 4 4 3 2 0 6 2 0 0 0 0 0 0 0 0 0 0 0 0 0 0 0 0 1 2 2 0
54 9 5 1 0 1 1 3 0 0 0 0 0 0 0 0 0 0 0 0 0 0 0 0 0 0 0 0 0 0 0 0 0 0 0 0 3 2
53 16 0 0 0 0 0 0 0 0 0 0 0 0 0 0 0 0 0 0 0 0 0 0 0 0 0 0 0 0 0 11 2 8 12 0 10 8
42 7 0 0 0 0 0 0 0 0 0 0 0 0 0 0 0 0 0 0 0 0 0 0 0 0 0 0 0 0 0 20 6 6 17 50 13 0
34 16 1 0 0 0 0 0 0 0 0 0 0 0 0 0 0 0 0 0 0 0 0 0 0 0 0 0 0 0 0 7 4 1 22 99 39 23
45 14 0 0 0 0 0 0 0 0 0 0 0 0 0 0 0 0 0 0 0 0 0 0 0 0 0 2 0 0 0 0 3 0 30 62 91 85
29 10 0 0 0 0 0 0 0 0 0 0 0 0 0 0 0 0 0 0 0 0 0 0 0 0 0 0 0 0 0 0 0 1 1 3 3 16
0 0 0 0 0 0 0 0 0 0 0 0 0 0 0 0 0 0 0 0 0 0 0 0 0 0 0 0 0 0 0 0 0 0 0 0 0 0
0 0 0 0 0 0 0 0 0 0 0 0 0 0 0 0 0 0 0 0 0 0 0 0 0 0 0 0 2 0 0 0 0 0 3 6 13 15
0 0 0 0 0 0 0 0 0 0 0 0 0 0 0 0 0 0 0 0 0 0 0 0 0 0 1 1 4 4 0 0 0 0 0 0 21 30
0 0 0 0 0 0 0 0 0 0 0 4 3 4 0 0 0 0 0 0 0 0 0 0 1 3 5 5 0 5 5 3 14 18 35 0 0 4